IBE0545 LEMD-LPPR

Flight info

Callsign IBE0545
Flight time 0h 42m
Altitude 30000
Route BARDI3N/36L BARDI DCT RIVRO DCT PESUL
Aircraft A320/M-SDE3FGHIRWY/LB1

Departure

Time 2026-05-03 21:03
Airport Adolfo Suárez Madrid–Barajas Airport (LEMD)

Arrival

Time 2026-05-03 21:45
Airport Francisco de Sá Carneiro Airport (LPPR)
Time Latitude Longitude Altitude Speed Heading
2026-05-03 21:02 40.69615 -3.65419 12488 ft 266 kts 230°
2026-05-03 21:03 40.68436 -3.67326 12909 ft 269 kts 230°
2026-05-03 21:03 40.67260 -3.69236 13007 ft 268 kts 230°
2026-05-03 21:03 40.66090 -3.71145 13014 ft 267 kts 230°
2026-05-03 21:03 40.65109 -3.73237 13231 ft 273 kts 245°
2026-05-03 21:04 40.64577 -3.75677 13774 ft 289 kts 259°
2026-05-03 21:04 40.64451 -3.78440 13921 ft 314 kts 264°
2026-05-03 21:04 40.64378 -3.81422 14044 ft 336 kts 265°
2026-05-03 21:04 40.64311 -3.84589 14169 ft 356 kts 265°
2026-05-03 21:05 40.64243 -3.87908 14482 ft 368 kts 265°
2026-05-03 21:05 40.64171 -3.91295 14998 ft 372 kts 265°
2026-05-03 21:05 40.64092 -3.94721 15559 ft 376 kts 265°
2026-05-03 21:05 40.64009 -3.98174 16127 ft 379 kts 265°
2026-05-03 21:06 40.63926 -4.01609 16661 ft 382 kts 265°
2026-05-03 21:06 40.63851 -4.05115 17223 ft 385 kts 265°
2026-05-03 21:06 40.63790 -4.08647 17764 ft 388 kts 266°
2026-05-03 21:06 40.63740 -4.12209 18307 ft 391 kts 266°
2026-05-03 21:07 40.63691 -4.15797 18742 ft 393 kts 266°
2026-05-03 21:07 40.63642 -4.19402 19212 ft 394 kts 265°
2026-05-03 21:07 40.63590 -4.23025 19705 ft 396 kts 265°
2026-05-03 21:07 40.63532 -4.26649 20203 ft 397 kts 265°
2026-05-03 21:08 40.63471 -4.30293 20708 ft 398 kts 265°
2026-05-03 21:08 40.63407 -4.33947 21171 ft 400 kts 265°
2026-05-03 21:08 40.63340 -4.37615 21646 ft 401 kts 264°
2026-05-03 21:08 40.63271 -4.41293 22107 ft 403 kts 264°
2026-05-03 21:09 40.63204 -4.44980 22545 ft 404 kts 264°
2026-05-03 21:09 40.63138 -4.48688 22977 ft 406 kts 264°
2026-05-03 21:09 40.63071 -4.52411 23388 ft 407 kts 264°
2026-05-03 21:09 40.63001 -4.56143 23778 ft 409 kts 264°
2026-05-03 21:10 40.62930 -4.59888 24155 ft 410 kts 264°
2026-05-03 21:10 40.62857 -4.63642 24519 ft 411 kts 264°
2026-05-03 21:10 40.62782 -4.67358 24867 ft 412 kts 264°
2026-05-03 21:10 40.62704 -4.71129 25196 ft 413 kts 264°
2026-05-03 21:11 40.62625 -4.74911 25519 ft 414 kts 264°
2026-05-03 21:11 40.62542 -4.78706 25834 ft 415 kts 264°
2026-05-03 21:11 40.62457 -4.82514 26149 ft 417 kts 264°
2026-05-03 21:11 40.62374 -4.86327 26457 ft 418 kts 264°
2026-05-03 21:12 40.62291 -4.90159 26763 ft 419 kts 264°
2026-05-03 21:12 40.62208 -4.94000 27067 ft 420 kts 264°
2026-05-03 21:12 40.62123 -4.97845 27461 ft 420 kts 264°
2026-05-03 21:12 40.62036 -5.01684 27846 ft 419 kts 264°
2026-05-03 21:13 40.61946 -5.05513 28267 ft 418 kts 264°
2026-05-03 21:13 40.61857 -5.09327 28710 ft 416 kts 264°
2026-05-03 21:13 40.61771 -5.13120 29146 ft 414 kts 264°
2026-05-03 21:13 40.61681 -5.16898 29605 ft 412 kts 264°
2026-05-03 21:14 40.61588 -5.20665 29959 ft 411 kts 264°
2026-05-03 21:14 40.61492 -5.24423 30020 ft 412 kts 264°
2026-05-03 21:14 40.61297 -5.31964 30018 ft 412 kts 264°
2026-05-03 21:15 40.61098 -5.39467 30021 ft 414 kts 264°
2026-05-03 21:15 40.60894 -5.47039 30022 ft 414 kts 264°
2026-05-03 21:16 40.60692 -5.54609 30024 ft 414 kts 264°
2026-05-03 21:16 40.60480 -5.62191 30020 ft 414 kts 264°
2026-05-03 21:17 40.60297 -5.68477 30020 ft 413 kts 264°
2026-05-03 21:17 40.60041 -5.77310 30040 ft 413 kts 264°
2026-05-03 21:18 40.59816 -5.84855 30033 ft 412 kts 264°
2026-05-03 21:18 40.59586 -5.92391 30027 ft 412 kts 264°
2026-05-03 21:19 40.59350 -5.99925 30016 ft 412 kts 264°
2026-05-03 21:19 40.59113 -6.07460 30021 ft 412 kts 264°
2026-05-03 21:20 40.58867 -6.14990 30042 ft 411 kts 264°
2026-05-03 21:20 40.58613 -6.22500 30031 ft 410 kts 264°
2026-05-03 21:21 40.58364 -6.29997 30040 ft 411 kts 265°
2026-05-03 21:21 40.59113 -6.37460 30036 ft 418 kts 277°
2026-05-03 21:22 40.60526 -6.44904 30032 ft 420 kts 279°
2026-05-03 21:22 40.61990 -6.52337 30059 ft 419 kts 278°
2026-05-03 21:23 40.63314 -6.59799 30043 ft 418 kts 277°
2026-05-03 21:23 40.64564 -6.67272 30033 ft 418 kts 277°
2026-05-03 21:24 40.65818 -6.74746 30034 ft 418 kts 277°
2026-05-03 21:24 40.67085 -6.82226 30030 ft 418 kts 277°
2026-05-03 21:25 40.68138 -6.88446 30052 ft 418 kts 277°
2026-05-03 21:25 40.69610 -6.97135 30049 ft 418 kts 277°
2026-05-03 21:26 40.70665 -7.03415 29837 ft 419 kts 277°
2026-05-03 21:26 40.71294 -7.07170 29552 ft 420 kts 277°
2026-05-03 21:26 40.71914 -7.10884 29273 ft 421 kts 277°
2026-05-03 21:27 40.72539 -7.14654 28996 ft 422 kts 277°
2026-05-03 21:27 40.73162 -7.18438 28719 ft 423 kts 277°
2026-05-03 21:27 40.73785 -7.22228 28379 ft 423 kts 278°
2026-05-03 21:27 40.74412 -7.26031 27241 ft 426 kts 278°
2026-05-03 21:28 40.75045 -7.29862 26108 ft 429 kts 278°
2026-05-03 21:28 40.75685 -7.33731 24973 ft 433 kts 278°
2026-05-03 21:28 40.76326 -7.37623 23887 ft 436 kts 278°
2026-05-03 21:28 40.76965 -7.41536 22815 ft 435 kts 278°
2026-05-03 21:29 40.77600 -7.45414 22035 ft 429 kts 278°
2026-05-03 21:29 40.78226 -7.49237 21260 ft 424 kts 278°
2026-05-03 21:29 40.78846 -7.53024 20495 ft 420 kts 278°
2026-05-03 21:29 40.79460 -7.56783 19735 ft 417 kts 278°
2026-05-03 21:30 40.80067 -7.60511 19018 ft 414 kts 279°
2026-05-03 21:30 40.80668 -7.64220 18268 ft 412 kts 279°
2026-05-03 21:30 40.81264 -7.67904 17488 ft 408 kts 279°
2026-05-03 21:30 40.81854 -7.71547 16812 ft 403 kts 279°
2026-05-03 21:31 40.82425 -7.75101 16158 ft 399 kts 279°
2026-05-03 21:31 40.82993 -7.78672 15499 ft 395 kts 279°
2026-05-03 21:31 40.83563 -7.82256 14864 ft 391 kts 279°
2026-05-03 21:31 40.84117 -7.85748 14139 ft 396 kts 280°
2026-05-03 21:32 40.84685 -7.89312 13287 ft 396 kts 280°
2026-05-03 21:32 40.85252 -7.92870 12417 ft 396 kts 280°
2026-05-03 21:32 40.85816 -7.96422 11597 ft 394 kts 280°
2026-05-03 21:32 40.86374 -7.99945 10921 ft 389 kts 280°
2026-05-03 21:33 40.86916 -8.03345 10504 ft 363 kts 280°
2026-05-03 21:33 40.87415 -8.06480 10290 ft 333 kts 280°
2026-05-03 21:33 40.87867 -8.09350 10181 ft 305 kts 280°
2026-05-03 21:33 40.88287 -8.11969 10121 ft 279 kts 281°
2026-05-03 21:34 40.88743 -8.14400 9901 ft 267 kts 283°
2026-05-03 21:34 40.89237 -8.16780 9592 ft 268 kts 284°
2026-05-03 21:34 40.89742 -8.19144 9266 ft 266 kts 284°
2026-05-03 21:34 40.90237 -8.21456 8934 ft 263 kts 284°
2026-05-03 21:35 40.90731 -8.23791 8518 ft 264 kts 284°
2026-05-03 21:35 40.91221 -8.26132 8108 ft 264 kts 284°
2026-05-03 21:35 40.91709 -8.28476 7701 ft 264 kts 284°
2026-05-03 21:35 40.92193 -8.30815 7325 ft 263 kts 285°
2026-05-03 21:36 40.92671 -8.33125 7092 ft 256 kts 284°
2026-05-03 21:36 40.93132 -8.35369 7069 ft 252 kts 285°
2026-05-03 21:36 40.93593 -8.37613 6970 ft 254 kts 285°
2026-05-03 21:36 40.94054 -8.39854 6675 ft 251 kts 286°
2026-05-03 21:37 40.94510 -8.42078 6378 ft 250 kts 286°
2026-05-03 21:37 40.94959 -8.44279 6057 ft 246 kts 286°
2026-05-03 21:37 40.95401 -8.46444 5749 ft 242 kts 286°
2026-05-03 21:37 40.95836 -8.48576 5434 ft 238 kts 286°
2026-05-03 21:38 40.96265 -8.50675 5139 ft 235 kts 286°
2026-05-03 21:38 40.96690 -8.52753 4847 ft 233 kts 287°
2026-05-03 21:38 40.97111 -8.54826 4533 ft 232 kts 286°
2026-05-03 21:38 40.97528 -8.56885 4224 ft 232 kts 286°
2026-05-03 21:39 40.97968 -8.58918 4026 ft 226 kts 293°
2026-05-03 21:39 40.98828 -8.60589 4016 ft 215 kts 318°
2026-05-03 21:39 41.00059 -8.61570 4014 ft 201 kts 341°
2026-05-03 21:39 41.01395 -8.61966 4018 ft 194 kts 347°
2026-05-03 21:40 41.02696 -8.62315 4014 ft 194 kts 347°
2026-05-03 21:40 41.04024 -8.62671 3784 ft 192 kts 347°
2026-05-03 21:40 41.05315 -8.63016 3506 ft 187 kts 347°
2026-05-03 21:40 41.06582 -8.63355 3250 ft 183 kts 347°
2026-05-03 21:41 41.07817 -8.63678 3134 ft 177 kts 347°
2026-05-03 21:41 41.08995 -8.63984 3050 ft 169 kts 347°
2026-05-03 21:41 41.10139 -8.64283 2908 ft 168 kts 347°
2026-05-03 21:41 41.11263 -8.64575 2652 ft 161 kts 348°
2026-05-03 21:42 41.12326 -8.64852 2437 ft 151 kts 347°
2026-05-03 21:42 41.13342 -8.65117 2229 ft 147 kts 348°
2026-05-03 21:42 41.14320 -8.65374 2050 ft 141 kts 348°
2026-05-03 21:42 41.15272 -8.65623 1857 ft 139 kts 347°
2026-05-03 21:43 41.16220 -8.65871 1665 ft 139 kts 348°
2026-05-03 21:43 41.17166 -8.66119 1477 ft 138 kts 348°
2026-05-03 21:43 41.18110 -8.66367 1300 ft 138 kts 347°
2026-05-03 21:43 41.19046 -8.66616 1148 ft 137 kts 348°
2026-05-03 21:44 41.19980 -8.66864 933 ft 136 kts 349°
2026-05-03 21:44 41.20909 -8.67099 754 ft 135 kts 348°
2026-05-03 21:44 41.21825 -8.67344 582 ft 136 kts 349°
2026-05-03 21:44 41.22751 -8.67585 398 ft 136 kts 348°
2026-05-03 21:45 41.23673 -8.67829 241 ft 134 kts 348°
2026-05-03 21:45 41.24466 -8.68037 208 ft 94 kts 348°
2026-05-03 21:45 41.24949 -8.68168 198 ft 51 kts 349°
2026-05-03 21:45 41.25186 -8.68145 183 ft 25 kts 12°
2026-05-03 21:46 41.25286 -8.68086 179 ft 11 kts 51°
2026-05-03 21:46 41.25271 -8.68024 182 ft 5 kts 146°
2026-05-03 21:46 41.25255 -8.68014 183 ft 0 kts 157°
2026-05-03 21:47 41.25235 -8.68005 184 ft 8 kts 164°
2026-05-03 21:47 41.25193 -8.67994 200 ft 5 kts 169°
2026-05-03 21:48 41.25108 -8.67972 190 ft 17 kts 169°
2026-05-03 21:48 41.24989 -8.67944 196 ft 17 kts 169°
2026-05-03 21:48 41.24895 -8.67917 198 ft 11 kts 166°
2026-05-03 21:48 41.24832 -8.67874 215 ft 15 kts 149°
2026-05-03 21:49 41.24724 -8.67816 211 ft 14 kts 171°
2026-05-03 21:49 41.24646 -8.67796 212 ft 9 kts 168°
2026-05-03 21:49 41.24605 -8.67784 214 ft 4 kts 168°
2026-05-03 21:49 41.24563 -8.67772 216 ft 14 kts 168°
2026-05-03 21:50 41.24454 -8.67746 222 ft 17 kts 172°
2026-05-03 21:50 41.24355 -8.67723 228 ft 11 kts 168°
2026-05-03 21:50 41.24284 -8.67674 232 ft 18 kts 134°
2026-05-03 21:50 41.24195 -8.67576 238 ft 16 kts 162°
2026-05-03 21:51 41.24054 -8.67538 238 ft 23 kts 169°
2026-05-03 21:51 41.23892 -8.67493 238 ft 24 kts 168°
2026-05-03 21:51 41.23749 -8.67441 239 ft 11 kts 116°
2026-05-03 21:51 41.23711 -8.67374 241 ft 8 kts 135°
2026-05-03 21:52 41.23670 -8.67343 242 ft 8 kts 160°
2026-05-03 21:52 41.23615 -8.67327 242 ft 8 kts 167°
2026-05-03 21:52 41.23593 -8.67291 243 ft 3 kts 95°
2026-05-03 21:52 41.23592 -8.67282 244 ft 2 kts 93°
2026-05-03 21:53 41.23592 -8.67260 245 ft 1 kts 89°
2026-05-03 21:53 41.23593 -8.67244 245 ft 1 kts 87°
2026-05-03 21:53 41.23593 -8.67232 245 ft 2 kts 89°
2026-05-03 21:53 41.23593 -8.67224 245 ft 0 kts 89°
2026-05-03 21:54 41.23593 -8.67223 245 ft 0 kts 89°